EW4120 Weather Reports


time (UTC)temp
F
wind
direction
speed
knots
gust
knots
rain 1hr
in
rain 24hr
in
rain mn
in
humidity
%
barometer
mb
20260507113551 0 0.0 0.0 0.00 0.00 0.00
20260507113016 0 0.0 0.0 0.00 0.00 0.00
20260507112003 0 0.0 0.0 0.00 0.00 0.00
20260507111714 0 0.0 0.0 0.00 0.00 0.00
20260507111055 0 0.0 0.0 0.00 0.00 0.00
20260507110516 0 0.0 0.0 0.00 0.00 0.00
20260507105536 0 0.0 0.0 0.00 0.00 0.00
20260507105059 0 0.0 0.0 0.00 0.00 0.00
20260507104552 0 0.0 0.0 0.00 0.00 0.00
20260507103516 63 0.0 0.0 0.00 0.00 0.00 99 1010.6
20260507102536 63 0.0 0.0 0.00 0.00 0.00 99 1010.6
20260507101517 63 0.0 0.0 0.00 0.00 0.00 99 1010.5
20260507100516 63 0.0 0.0 0.00 0.00 0.00 99 1010.7
20260507095541 63 0.0 0.0 0.00 0.00 0.00 98 1010.8
20260507094516 63 0.0 0.0 0.00 0.00 0.00 98 1010.7
20260507093536 63 0.0 0.0 0.00 0.00 0.00 98 1011.1
20260507092516 63 0.0 0.0 0.00 0.00 0.00 98 1010.8
20260507091516 63 0.0 0.0 0.00 0.00 0.00 98 1010.7
20260507090516 63 0.0 0.0 0.00 0.00 0.00 98 1011.3
20260507085536 63 0.0 0.0 0.00 0.00 0.00 98 1010.8
20260507084536 63 0.0 0.0 0.00 0.00 0.00 98 1010.2
20260507083516 63 0.0 0.9 0.00 0.00 0.00 98 1010.1
20260507082516 63 0.0 0.0 0.00 0.00 0.00 98 1010.6
20260507081516 63 0.0 0.9 0.00 0.00 0.00 98 1010.7
20260507080536 63 0.0 0.0 0.00 0.00 0.00 98 1010.6
20260507075636 63 0.0 0.0 0.00 0.00 0.00 98 1010.7
20260507074516 63 0.0 0.0 0.00 0.00 0.00 98 1010.8
20260507073516 63 0.0 0.9 0.00 0.00 0.00 98 1011.3
20260507072516 63 0.0 0.9 0.00 0.00 0.00 98 1011.6
20260507071616 63 0.0 0.0 0.00 0.00 0.00 98 1011.5
20260507070516 63 0.0 0.9 0.00 0.00 0.00 98 1011.5
20260507065556 63 0.0 0.0 0.00 0.00 0.00 98 1011.4
20260507064516 63 0.0 0.0 0.00 0.00 0.00 98 1011.5
20260507063616 63 0.0 0.0 0.00 0.00 0.00 98 1011.6
20260507062516 63 0.0 0.0 0.00 0.00 0.00 98 1011.7
20260507061516 63 0.0 0.0 0.00 0.00 0.00 98 1011.8
20260507060516 63 0.0 0.0 0.00 0.00 0.00 98 1012.2
20260507055516 63 0.0 0.0 0.00 0.00 0.00 98 1013.0
20260507054516 63 0.0 0.0 0.00 0.00 0.00 97 1012.9
20260507053536 63 0.0 0.9 0.00 0.00 0.00 98 1013.1
20260507052518 63 0.0 0.0 0.00 0.00 0.00 97 1012.2
20260507051518 63 0.0 0.0 0.00 0.00 0.00 97 1013.5
20260507050517 63 0.0 0.9 0.00 0.00 0.00 97 1013.3
20260507045517 63 0.0 1.7 0.00 0.00 0.00 97 1013.1
20260507044558 63 0.0 0.0 0.00 0.00 0.00 97 1012.8
20260507043538 63 0.0 0.0 0.00 0.00 0.00 97 1012.8
20260507042517 63 0.0 0.0 0.00 0.00 0.00 97 1013.0
20260507041537 64 0.0 0.0 0.00 0.00 0.00 97 1012.6
20260507040558 64 0.0 0.9 0.00 0.00 0.00 96 1012.1
20260507035516 64 0.0 0.0 0.00 0.00 0.00 96 1012.7
20260507034636 64 0.0 0.9 0.00 0.00 0.00 96 1012.2
20260507033516 65 315 0.9 4.3 0.00 0.00 0.00 96 1011.9
20260507032636 65 0.0 0.9 0.00 0.00 0.00 95 1014.1
20260507031556 65 270 0.9 3.5 0.00 0.00 0.00 95 1014.4
20260507030556 65 0.0 3.5 0.00 0.00 0.00 95 1014.0
20260507025516 66 0.0 0.0 0.00 0.00 0.00 95 1013.8
20260507024516 66 0.0 0.9 0.00 0.00 0.00 95 1013.5
20260507023556 66 0.0 3.5 0.00 0.00 0.00 95 1013.4
20260507022516 66 0.0 1.7 0.00 0.00 0.00 96 1013.5
20260507021516 66 0.0 0.9 0.00 0.00 0.00 95 1013.1
20260507020636 67 0.0 0.0 0.00 0.00 0.00 95 1013.2
20260507015536 66 0.0 0.0 0.00 0.00 0.00 94 1012.7
20260507014516 66 0.0 0.0 0.00 0.00 0.00 94 1012.2
20260507013536 66 0.0 0.0 0.00 0.00 0.00 93 1012.1
20260507012536 67 0.0 0.0 0.00 0.00 0.00 93 1012.3
20260507011536 67 0.0 0.0 0.00 0.00 0.00 93 1012.5
20260507010516 67 0.0 0.0 0.00 0.00 0.00 92 1012.5
20260507005516 67 0.0 0.0 0.00 0.00 0.00 91 1012.6
20260507004636 68 0.0 0.0 0.00 0.00 0.00 91 1012.7
20260507003618 68 0.0 0.0 0.00 0.00 0.00 89 1012.4
20260507002538 69 0.0 0.0 0.00 0.00 0.00 88 1012.3
20260507001558 69 0.0 0.0 0.00 0.00 0.00 87 1012.4
20260507000618 69 0.0 0.0 0.00 0.00 0.00 85 1012.0
20260506235517 70 0.0 0.0 0.00 0.00 0.00 84 1012.2
20260506234518 70 0.0 0.9 0.00 0.00 0.00 84 1012.3
20260506233538 70 0.0 0.9 0.00 0.00 0.00 83 1012.2
20260506232538 71 0.0 0.0 0.00 0.00 0.00 83 1012.2
20260506231538 71 0.0 0.9 0.00 0.00 0.00 82 1012.3
20260506230658 71 293 0.9 1.7 0.00 0.00 0.00 81 1012.4
20260506225517 71 248 0.9 3.5 0.00 0.00 0.00 81 1012.6
20260506224517 72 0.0 1.7 0.00 0.00 0.00 81 1012.7
20260506223557 72 248 0.9 5.2 0.00 0.00 0.00 80 1012.8
20260506222537 72 0.0 1.7 0.00 0.00 0.00 80 1012.9
20260506221517 72 225 0.9 6.1 0.00 0.00 0.00 79 1013.0
20260506220537 72 293 0.9 4.3 0.00 0.00 0.00 79 1013.0
20260506215557 73 248 0.9 3.5 0.00 0.00 0.00 78 1012.7
20260506214517 73 0.0 2.6 0.00 0.00 0.00 78 1012.8
20260506213517 73 270 0.9 5.2 0.00 0.00 0.00 77 1012.5
20260506212517 73 270 0.9 7.0 0.00 0.00 0.00 77 1012.1
20260506211537 74 293 0.9 3.5 0.00 0.00 0.00 77 1012.1
20260506210617 74 293 0.9 5.2 0.00 0.00 0.00 78 1012.5
20260506205618 73 315 0.9 4.3 0.00 0.00 0.00 76 1012.5
20260506204537 73 90 0.9 2.6 0.00 0.00 0.00 77 1012.8
20260506203517 74 113 0.9 3.5 0.00 0.00 0.00 76 1012.9
20260506202517 73 293 0.9 6.1 0.00 0.00 0.00 78 1013.0
20260506201537 73 90 0.9 3.5 0.00 0.00 0.00 79 1013.0
20260506200517 72 315 0.9 4.3 0.00 0.00 0.00 80 1012.8
20260506195517 71 293 1.7 6.1 0.00 0.00 0.00 80 1012.8
20260506194617 72 315 0.9 5.2 0.00 0.00 0.00 80 1012.8
20260506193517 71 293 1.7 7.0 0.00 0.00 0.00 80 1012.9
20260506192537 70 315 1.7 7.0 0.00 0.00 0.00 82 1012.6
20260506191537 69 315 0.9 3.5 0.00 0.00 0.00 83 1012.7
20260506190517 69 293 1.7 7.0 0.00 0.00 0.00 82 1013.2
20260506185517 70 293 1.7 7.0 0.00 0.00 0.00 82 1013.4
20260506184517 70 293 0.9 5.2 0.00 0.00 0.00 82 1013.3
20260506183537 69 0.0 4.3 0.00 0.00 0.00 85 1012.8
20260506182517 68 315 0.9 2.6 0.00 0.00 0.00 84 1012.9
20260506181557 68 315 0.9 3.5 0.00 0.00 0.00 84 1013.5
20260506180517 68 293 0.9 7.0 0.00 0.00 0.00 84 1014.3
20260506175517 68 293 0.9 4.3 0.00 0.00 0.00 84 1014.4
20260506174517 69 0.0 1.7 0.00 0.00 0.00 84 1014.8
20260506173517 69 270 0.9 3.5 0.00 0.00 0.00 80 1015.0
20260506172537 70 0.0 0.9 0.00 0.00 0.00 79 1015.0
20260506171557 69 0.0 0.0 0.00 0.00 0.00 80 1014.9
20260506170617 69 0.0 0.9 0.00 0.00 0.00 79 1014.8
20260506165537 70 0.0 0.0 0.00 0.00 0.00 80 1014.8
20260506164537 70 315 0.9 3.5 0.00 0.00 0.00 78 1014.7
20260506163517 69 0.0 1.7 0.00 0.00 0.00 78 1014.8
20260506162537 69 0.0 3.5 0.00 0.00 0.00 77 1014.9
20260506161537 69 0.0 2.6 0.00 0.00 0.00 79 1014.8
20260506160517 69 315 0.9 6.1 0.00 0.00 0.00 78 1014.8
20260506155517 68 293 0.9 3.5 0.00 0.00 0.00 77 1014.8
20260506154517 68 315 0.9 4.3 0.00 0.00 0.00 78 1014.3
20260506153617 68 315 0.9 2.6 0.00 0.00 0.00 78 1014.2
20260506152517 67 0.0 1.7 0.00 0.00 0.00 78 1014.3
20260506151517 67 0.0 4.3 0.00 0.00 0.00 78 1014.5
20260506150517 67 315 0.9 5.2 0.00 0.00 0.00 77 1014.3
20260506145517 67 293 0.9 3.5 0.00 0.00 0.00 78 1014.4
20260506144516 67 315 0.9 4.3 0.00 0.00 0.00 77 1014.5
20260506143537 67 0.0 3.5 0.00 0.00 0.00 77 1014.5
20260506142637 67 293 0.9 7.8 0.00 0.00 0.00 76 1014.3
20260506141537 67 315 0.9 3.5 0.00 0.00 0.00 76 1014.3
20260506140536 67 315 0.9 3.5 0.00 0.00 0.00 77 1014.4
20260506135536 66 0.0 2.6 0.00 0.00 0.00 77 1014.2
20260506134516 66 315 0.9 3.5 0.00 0.00 0.00 77 1014.2
20260506133536 66 45 0.9 3.5 0.00 0.00 0.00 78 1014.3
20260506132617 65 315 0.9 4.3 0.00 0.00 0.00 78 1014.0
20260506131516 65 293 1.7 7.0 0.00 0.00 0.00 79 1013.9
20260506130557 64 293 0.9 4.3 0.00 0.00 0.00 79 1013.9
20260506125516 64 270 0.9 4.3 0.00 0.00 0.00 79 1014.4
20260506124536 63 0.0 1.7 0.00 0.00 0.00 80 1014.4
20260506123616 63 315 0.9 4.3 0.00 0.00 0.00 80 1014.5
20260506122516 63 0.0 3.5 0.00 0.00 0.00 81 1014.7
20260506121616 63 270 0.9 2.6 0.00 0.00 0.00 81 1014.7
20260506120536 63 293 0.9 2.6 0.00 0.00 0.00 81 1014.6
20260506115516 62 315 0.9 5.2 0.00 0.00 0.00 81 1014.6
20260506114516 62 293 0.9 4.3 0.00 0.00 0.00 81 1014.5